TimeCST,TemperatureF,Dew PointF,Humidity,Sea Level PressureIn,VisibilityMPH,Wind Direction,Wind SpeedMPH,Gust SpeedMPH,PrecipitationIn,Events,Conditions,WindDirDegrees,DateUTC
12:53 AM,64.9,64.9,100,29.94,10.0,SE,3.5,-,N/A,,Mostly Cloudy,130,2012-12-07 06:53:00
1:53 AM,64.9,64.9,100,29.94,8.0,Calm,Calm,-,N/A,,Overcast,0,2012-12-07 07:53:00
2:42 AM,64.4,64.4,100,29.92,9.0,East,3.5,-,N/A,,Overcast,100,2012-12-07 08:42:00
2:53 AM,64.9,64.9,100,29.93,9.0,East,3.5,-,N/A,,Overcast,90,2012-12-07 08:53:00
3:53 AM,64.9,64.9,100,29.93,9.0,Calm,Calm,-,N/A,,Overcast,0,2012-12-07 09:53:00
4:53 AM,64.9,64.9,100,29.93,8.0,Calm,Calm,-,0.00,,Overcast,0,2012-12-07 10:53:00
5:53 AM,64.0,64.0,100,29.94,6.0,Calm,Calm,-,N/A,,Overcast,0,2012-12-07 11:53:00
6:03 AM,64.4,64.4,100,29.94,6.0,Calm,Calm,-,N/A,,Overcast,0,2012-12-07 12:03:00
6:53 AM,64.0,64.0,100,29.96,3.0,Calm,Calm,-,N/A,,Overcast,0,2012-12-07 12:53:00
7:03 AM,64.4,64.4,100,29.96,2.0,Calm,Calm,-,N/A,,Overcast,0,2012-12-07 13:03:00
7:11 AM,64.4,64.4,100,29.97,1.8,Calm,Calm,-,N/A,,Overcast,0,2012-12-07 13:11:00
7:20 AM,64.4,64.4,100,29.97,2.5,Calm,Calm,-,N/A,,Overcast,0,2012-12-07 13:20:00
7:29 AM,64.4,64.4,100,29.97,3.0,Calm,Calm,-,N/A,,Overcast,0,2012-12-07 13:29:00
7:53 AM,64.9,64.9,100,29.97,5.0,Calm,Calm,-,N/A,,Overcast,0,2012-12-07 13:53:00
8:53 AM,69.1,66.0,90,29.98,10.0,East,4.6,-,N/A,,Mostly Cloudy,100,2012-12-07 14:53:00
9:02 AM,69.8,66.2,88,29.98,10.0,ESE,3.5,-,N/A,,Mostly Cloudy,120,2012-12-07 15:02:00
9:53 AM,69.1,64.9,87,29.98,10.0,East,3.5,-,N/A,,Scattered Clouds,100,2012-12-07 15:53:00
10:53 AM,71.1,64.9,81,29.96,10.0,SSE,3.5,-,N/A,,Overcast,160,2012-12-07 16:53:00
11:24 AM,71.6,64.4,78,29.95,10.0,South,4.6,-,N/A,,Overcast,170,2012-12-07 17:24:00
11:53 AM,72.0,64.0,76,29.95,10.0,South,5.8,-,N/A,,Overcast,170,2012-12-07 17:53:00
12:15 PM,73.4,64.4,73,29.94,10.0,South,4.6,-,N/A,,Overcast,180,2012-12-07 18:15:00
12:53 PM,72.0,64.9,78,29.92,10.0,South,4.6,-,N/A,,Overcast,170,2012-12-07 18:53:00
1:53 PM,73.9,63.0,68,29.89,10.0,SSE,4.6,-,N/A,,Overcast,160,2012-12-07 19:53:00
2:53 PM,73.0,62.1,68,29.89,10.0,SSE,4.6,-,N/A,,Overcast,150,2012-12-07 20:53:00
3:53 PM,71.1,64.9,81,29.90,10.0,SSE,4.6,-,N/A,,Overcast,160,2012-12-07 21:53:00
4:53 PM,70.0,66.0,87,29.90,10.0,Calm,Calm,-,N/A,,Overcast,0,2012-12-07 22:53:00
5:53 PM,69.1,68.0,96,29.91,9.0,Calm,Calm,-,0.00,,Overcast,0,2012-12-07 23:53:00
7:28 PM,68.0,68.0,100,29.93,2.5,ESE,3.5,-,0.03,Rain,Rain,110,2012-12-08 01:28:00
7:41 PM,68.0,68.0,100,29.93,4.0,Calm,Calm,-,0.05,Rain,Light Rain,0,2012-12-08 01:41:00
8:53 PM,66.9,66.9,100,29.94,9.0,East,3.5,-,N/A,,Overcast,100,2012-12-08 02:53:00
9:08 PM,66.2,66.2,100,29.94,8.0,Calm,Calm,-,N/A,,Overcast,0,2012-12-08 03:08:00
9:53 PM,66.9,66.9,100,29.93,7.0,ESE,3.5,-,N/A,,Overcast,120,2012-12-08 03:53:00
10:53 PM,66.9,66.9,100,29.94,5.0,SE,4.6,-,N/A,,Overcast,140,2012-12-08 04:53:00
11:53 PM,66.9,66.9,100,29.93,4.0,Calm,Calm,-,N/A,,Overcast,0,2012-12-08 05:53:00